[[{"header":{"parameterUnit":"m.s-1","parameterCategory":1,"la1":30.2992,"la2":30.254,"lo1":-89.0895,"lo2":-89.0443,"dy":0.0025,"dx":0.0025,"nx":19,"ny":19,"refTime":"2026-05-15T09:00:00:Z","depth":0,"parameterNumber":2,"parameterNumberName":"U-component_of_WINDS"},"data":[0,0,0,-0.6419,-0.6419,-0.6427,-0.6427,-0.6441,-0.6441,0,0,0,0,0,0,0,0,0,0,0,-0.6417,-0.6417,-0.6419,-0.6419,-0.6427,-0.6427,-0.6441,-0.6441,0,0,0,0,0,0,0,0,0,0,0,-0.6417,-0.6417,-0.6417,-0.6419,-0.6427,-0.6427,-0.6441,-0.6434,0,0,0,0,0,0,0,0,0,0,-0.6425,-0.6424,-0.6417,-0.6417,-0.6419,-0.6427,-0.6427,-0.6434,-0.6434,-0.6438,0,-0.6442,0,-0.6442,-0.6442,-0.6443,0,0,0,-0.6418,-0.6423,-0.6425,-0.6417,-0.6419,-0.6427,-0.6423,-0.6434,-0.6435,-0.644,-0.6442,-0.6442,-0.6442,-0.6443,-0.6443,-0.6468,-0.6468,0,0,-0.6418,-0.6419,-0.6424,-0.6426,-0.6424,-0.6423,-0.6424,-0.6435,-0.6437,-0.6442,-0.6442,-0.6442,-0.6443,-0.6443,-0.6468,-0.6468,0,0,0,-0.6417,-0.6419,-0.642,-0.6425,-0.6427,-0.6423,-0.6424,-0.6437,-0.6437,-0.6443,-0.6442,-0.6443,-0.6443,-0.6467,-0.6468,-0.6477,0,0,0,-0.6416,-0.6418,-0.642,-0.6421,-0.6426,-0.6432,-0.6426,-0.6436,-0.6437,-0.6442,-0.6443,-0.6443,-0.6467,-0.6468,-0.6476,-0.6481,0,0,0,-0.6416,-0.6418,-0.642,-0.6421,-0.6424,-0.6431,-0.6432,-0.6436,-0.6437,-0.6443,-0.6443,-0.6467,-0.6468,-0.6476,-0.648,-0.6489,0,0,0,-0.6416,-0.6427,-0.642,-0.6432,-0.6424,-0.6437,-0.6432,-0.6441,-0.6447,-0.6443,-0.6467,-0.6468,-0.6475,-0.6479,-0.6488,-0.6497,-0.6501,0,0,-0.643,-0.6428,-0.6435,-0.6429,-0.6443,-0.6435,-0.6451,-0.6454,-0.6454,-0.6463,-0.6464,-0.6476,-0.648,-0.6489,-0.6519,-0.6522,0,0,0,-0.644,-0.6445,-0.6449,-0.6454,-0.6458,-0.6462,-0.6463,-0.6465,-0.6473,-0.6459,-0.6482,-0.6484,-0.6489,-0.6493,-0.6495,-0.65,-0.6469,-0.6469,-0.6469,-0.6462,-0.6461,-0.6473,-0.6474,-0.6479,-0.6482,-0.6487,-0.6489,-0.6486,-0.6492,-0.6495,-0.6513,-0.6518,-0.652,-0.6525,-0.6499,-0.6499,-0.6499,-0.6499,-0.6483,-0.6491,-0.6488,-0.6498,-0.6498,-0.6507,-0.6511,-0.6509,-0.6518,-0.651,-0.6515,-0.6507,-0.6523,-0.6528,-0.6499,-0.6499,-0.6499,-0.6499,-0.6499,-0.6497,-0.6501,-0.6504,-0.6513,-0.652,-0.6521,-0.6531,-0.653,-0.6529,-0.6533,-0.6537,-0.6537,-0.6538,-0.6535,-0.6535,-0.6535,-0.6535,-0.6535,-0.6535,-0.6512,-0.6514,-0.6522,-0.6528,-0.6533,-0.6539,-0.6542,-0.6547,-0.6552,-0.6551,-0.6551,-0.6548,-0.6524,-0.6519,-0.6536,-0.6536,-0.6536,-0.6536,-0.6536,-0.6535,-0.653,-0.6542,-0.6547,-0.6555,-0.6564,-0.6563,-0.6573,-0.6576,-0.6582,-0.6579,-0.6561,-0.6559,-0.6557,-0.6552,-0.6578,-0.6578,-0.6578,-0.6578,-0.6547,-0.6547,-0.656,-0.6568,-0.6576,-0.6577,-0.6593,-0.6597,-0.66,-0.6602,-0.6599,-0.6592,-0.659,-0.659,-0.6587,-0.6583,-0.6616,-0.6616,-0.6616,-0.6562,-0.6562,-0.6575,-0.6578,-0.6585,-0.6592,-0.6607,-0.6617,-0.662,-0.6617,-0.6605,-0.6603,-0.6593,-0.659,-0.6587,-0.6583,-0.6575,0,0]},{"header":{"parameterUnit":"m.s-1","parameterCategory":1,"la1":30.2992,"la2":30.254,"lo1":-89.0895,"lo2":-89.0443,"dy":0.0025,"dx":0.0025,"nx":19,"ny":19,"refTime":"2026-05-15T09:00:00:Z","depth":0,"parameterNumber":3,"parameterNumberName":"V-component_of_WINDS"},"data":[0,0,0,3.1588,3.1589,3.1634,3.1634,3.1702,3.1703,0,0,0,0,0,0,0,0,0,0,0,3.1584,3.1585,3.1588,3.159,3.1634,3.1634,3.1702,3.1703,0,0,0,0,0,0,0,0,0,0,0,3.1584,3.1585,3.1586,3.159,3.1634,3.1634,3.1702,3.1664,0,0,0,0,0,0,0,0,0,0,3.1619,3.1625,3.1585,3.1586,3.159,3.1634,3.1634,3.1662,3.1666,3.1688,0,3.1711,0,3.1708,3.1709,3.1709,0,0,0,3.1582,3.1621,3.1625,3.1586,3.1591,3.1634,3.1612,3.1664,3.1669,3.1694,3.1712,3.1714,3.171,3.1709,3.171,3.186,3.1861,0,0,3.158,3.1597,3.1621,3.1629,3.1624,3.161,3.1613,3.1667,3.1688,3.1712,3.1716,3.1711,3.171,3.171,3.1859,3.186,0,0,0,3.1578,3.1596,3.1598,3.1626,3.1633,3.1612,3.1615,3.1685,3.1684,3.1716,3.1712,3.171,3.1711,3.1858,3.1859,3.1925,0,0,0,3.1576,3.1594,3.1597,3.1608,3.1633,3.166,3.1632,3.1681,3.1686,3.1711,3.171,3.1712,3.1856,3.1858,3.1921,3.1953,0,0,0,3.1578,3.1594,3.1604,3.1609,3.1628,3.1659,3.1661,3.1681,3.1684,3.1709,3.1712,3.1856,3.1858,3.1917,3.1947,3.1996,0,0,0,3.1585,3.1664,3.1606,3.1691,3.1628,3.1701,3.166,3.1713,3.1743,3.1711,3.1857,3.1859,3.1916,3.1943,3.1992,3.2038,3.206,0,0,3.1694,3.1677,3.1726,3.1675,3.1762,3.1692,3.1788,3.1799,3.1786,3.1835,3.1839,3.1922,3.1947,3.1995,3.2179,3.2197,0,0,0,3.1766,3.1801,3.182,3.1849,3.186,3.187,3.1865,3.1869,3.1909,3.1816,3.1954,3.1968,3.1995,3.2016,3.2031,3.2052,3.187,3.187,3.187,3.1943,3.1921,3.1999,3.1982,3.2011,3.2003,3.2023,3.2027,3.1998,3.2031,3.2044,3.2159,3.2185,3.2196,3.2218,3.2069,3.2069,3.207,3.207,3.2097,3.2141,3.2099,3.2159,3.2135,3.2185,3.218,3.2157,3.2199,3.2148,3.2171,3.2114,3.2216,3.2234,3.2075,3.2074,3.2073,3.2073,3.2072,3.2208,3.2226,3.2229,3.2266,3.2298,3.2278,3.2319,3.2296,3.2275,3.2298,3.2308,3.2307,3.2301,3.2305,3.2305,3.2306,3.2306,3.2306,3.2306,3.2322,3.2323,3.2361,3.2377,3.2391,3.2406,3.2398,3.2411,3.2419,3.2399,3.2399,3.2365,3.2231,3.2196,3.2312,3.2311,3.2311,3.231,3.231,3.2483,3.2442,3.2501,3.2515,3.2529,3.256,3.253,3.2558,3.2565,3.2585,3.2546,3.2452,3.2433,3.2421,3.2392,3.2552,3.2552,3.2552,3.2552,3.2575,3.2564,3.2616,3.2639,3.266,3.2638,3.2702,3.2695,3.2683,3.2685,3.2659,3.2619,3.2608,3.2596,3.258,3.2553,3.275,3.2751,3.2751,3.2672,3.266,3.272,3.2706,3.2716,3.2724,3.2782,3.2809,3.2786,3.2758,3.2686,3.2678,3.2613,3.2594,3.2563,3.2539,3.2488,0,0]}]]